Location: Banska Bystrica
(0.0000°N, 19.1500°E)
Time: 18:24:15
(UTC+02:00)

Milstar 3 - Pass Details

Date: 19 February 2019
Orbit: 1111 x 5134 km, 28.2° (Epoch: 06 September)

Event Time Altitude Azimuth Distance (km) Brightness Sun altitude
Rises 18:33:54 0° 303° (WNW) 5,436 7.1 -9.0°
Reaches altitude 10° 18:37:57 10° 304° (NW) 3,974 6.3 -10.0°
Maximum altitude 18:47:03 75° 29° (NNE) 1,257 3.0 -12.2°
Enters shadow 18:53:38 10° 114° (ESE) 2,936 4.5 -13.8°
